Regional Weather Roundup
Issued by NWS Little Rock, AR

Home | Current Version | Previous Version | Text Only | Print | Product List | Glossary Off
Versions: 1 2 3 4 5 6 7 8 9 10 11 12 13 14 15 16 17 18 19 20 21 22 23 24 25 26 27 28 29 30 31 32 33 34 35 36 37 38 39 40 41 42 43 44 45 46 47 48 49 50

000
ASUS44 KLZK 291405
RWRLZK

WEATHER ROUNDUP FOR ARKANSAS
NATIONAL WEATHER SERVICE LITTLE ROCK AR
900 AM CDT WED JUL 29 2015

NOTE: "FAIR" INDICATES FEW OR NO CLOUDS BELOW 12,000 FEET WITH NO
SIGNIFICANT WEATHER AND/OR OBSTRUCTIONS TO VISIBILITY.

ARZ001-003-010-029-291500-
NORTHWEST ARKANSAS

CITY           SKY/WX    TMP DP  RH WIND       PRES   REMARKS
FAYETTEVILLE   SUNNY     80  72  76 E3        30.12R
FORT SMITH     SUNNY     83  73  72 E3        30.06R HAZE    HX  89
HARRISON       MOSUNNY   83  73  72 W5        30.12R HX  89
BENTONVILLE    SUNNY     84  70  61 CALM      30.12R HX  88
ROGERS         SUNNY     84  73  69 CALM      30.12R HX  90
SILOAM SPGS    SUNNY     82  70  65 CALM      30.10R HX  86
HIGHFILL       SUNNY     83  75  77 CALM      30.11R HX  90
SPRINGDALE     SUNNY     82  72  69 E3        30.14R HX  87
$$

ARZ004-005-016-291500-
NORTH CENTRAL ARKANSAS

CITY           SKY/WX    TMP DP  RH WIND       PRES   REMARKS
BATESVILLE     SUNNY     86  75  70 W3        30.05R HX  95
FLIPPIN        PTSUNNY   82  72  69 CALM      30.07R HX  87
MTN HOME       PTSUNNY   81  76  84 CALM      30.08R HX  87
$$

ARZ040-041-291500-
WEST CENTRAL ARKANSAS

CITY           SKY/WX    TMP DP  RH WIND       PRES   REMARKS
MENA           SUNNY     82  73  74 CALM      30.11R HX  88
MOUNT IDA      SUNNY     84  73  69 CALM      30.06R HX  90
$$

ARZ009-017-025-026-028-291500-
NORTHEAST ARKANSAS

CITY           SKY/WX    TMP DP  RH WIND       PRES   REMARKS
JONESBORO        N/A     84  77  79 W8        30.03R HX  94
NEWPORT        SUNNY     90  77  65 W5        30.05R HX 103
WALNUT RIDGE   SUNNY     84  75  74 W6        30.02S HX  92
BLYTHEVILLE    MOSUNNY   88  81  79 W3        30.03R HX 106
$$

ARZ022-023-033-042-044-291500-
CENTRAL ARKANSAS

CITY           SKY/WX    TMP DP  RH WIND       PRES   REMARKS
LITTLE ROCK    SUNNY     89  73  59 CALM      30.05R HX  97
N LITTLE ROCK  SUNNY     89  75  63 CALM      30.05R HX  98
JACKSONVILLE   SUNNY     88  74  61 CALM      30.05R HX  97
SEARCY         SUNNY     87  79  76 S3        30.06R HX 101
HOT SPRINGS    SUNNY     87  73  62 CALM      30.07R HX  94
RUSSELLVILLE   SUNNY     85  75  72 CALM      30.05R HX  93
CLINTON        LGT RAIN  82  77  83 CALM      30.08R HX  91
$$

ARZ036-291500-
EAST ARKANSAS

CITY           SKY/WX    TMP DP  RH WIND       PRES   REMARKS
WEST MEMPHIS   MOSUNNY   84  79  85 CALM      30.03R HX  96
$$

ARZ050-053-066-070-073-291500-
SOUTHWEST ARKANSAS

CITY           SKY/WX    TMP DP  RH WIND       PRES   REMARKS
ARKADELPHIA    FAIR      89  75  63 CALM      30.07R HX  98
CAMDEN         SUNNY     86  73  66 W3        30.06R HX  93
TEXARKANA      SUNNY     87  72  60 W7        30.06R HX  93
EL DORADO      SUNNY     86  73  65 W6        30.07R HX  93
DE QUEEN       SUNNY     84  75  74 CALM      30.04R HX  92
$$

ARZ056-057-069-291500-
SOUTHEAST ARKANSAS

CITY           SKY/WX    TMP DP  RH WIND       PRES   REMARKS
PINE BLUFF     SUNNY     88  77  69 CALM      30.06R HX 100
STUTTGART      SUNNY     88  75  66 NW3       30.05S HX  97
MONTICELLO     SUNNY     88  75  65 W6        30.06R HX  97

$$





USA.gov is the U.S. government's official web portal to all federal, state and local government web resources and services.